This demonstration page uses our WeatherBlox Daily Observations layout. Learn more.

Left ArrowRight Arrow

44.8408, -93.29828

Hourly Observations for May 14, 2021

Temp ( °F °C ) Dew Point ( °F °C ) Humidity (%) Winds ( mph kmh ) Pressure ( in mb ) Visibility ( mi km ) Precip ( " mm )
12:53 am 00:53 Partly Cloudy 58 14.4 27 -2.8 31 31 S 12 19 30.22 1024 10 16 0.00 0.00
1:53 am 01:53 Mostly Cloudy 59 15 29 -1.7 32 32 S 10 17 30.22 1023 10 16 0.00 0.00
2:53 am 02:53 Cloudy 58 14.4 29 -1.7 33 33 S 10 17 30.21 1023 10 16 0.00 0.00
3:53 am 03:53 Cloudy 58 14.4 30 -1.1 35 35 S 12 19 30.21 1023 10 16 0.00 0.00
4:53 am 04:53 Mostly Cloudy 58 14.4 31 -0.6 36 36 S 7 11 30.20 1023 10 16 0.00 0.00
5:53 am 05:53 Cloudy 57 13.9 31 -0.6 37 37 S 7 11 30.20 1023 10 16 0.00 0.00
6:53 am 06:53 Cloudy 58 14.4 31 -0.6 36 36 S 9 15 30.20 1023 10 16 0.00 0.00
7:53 am 07:53 Cloudy 59 15 28 -2.2 31 31 SSW 9 15 30.21 1023 10 16 0.00 0.00
8:53 am 08:53 Cloudy 59 15 30 -1.1 33 33 SSW 7 11 30.21 1023 10 16 0.00 0.00
9:53 am 09:53 Cloudy 62 16.7 31 -0.6 31 31 S 10 17 30.20 1023 10 16 0.00 0.00
10:53 am 10:53 Cloudy 65 18.3 30 -1.1 27 27 SSW 15 24 30.19 1022 10 16 0.00 0.00
11:53 am 11:53 Mostly Cloudy 66 18.9 34 1.1 30 30 SSW 16 26 30.18 1022 10 16 0.00 0.00
12:53 pm 12:53 Mostly Cloudy 63 17.2 37 2.8 38 38 SW 17 28 30.19 1022 10 16 0.00 0.00
1:53 pm 13:53 Cloudy with Light Rain 61 16.1 39 3.9 44 44 S 13 20 30.20 1023 10 16 0.00 0.00
2:53 pm 14:53 Cloudy 59 15 40 4.4 49 49 SE 10 17 30.18 1022 10 16 0.00 0.00
3:53 pm 15:53 Cloudy 60 15.6 40 4.4 47 47 ESE 12 19 30.16 1021 10 16 0.00 0.00
4:53 pm 16:53 Cloudy 61 16.1 39 3.9 44 44 ESE 10 17 30.13 1020 10 16 0.00 0.00
5:53 pm 17:53 Cloudy 61 16.1 40 4.4 46 46 SSW 14 22 30.13 1020 10 16 0.00 0.00
6:53 pm 18:53 Cloudy with Light Rain 55 12.8 47 8.3 74 74 S 9 15 30.14 1021 8 13 0.01 0.25
7:53 pm 19:53 Cloudy 56 13.3 44 6.7 65 65 SE 9 15 30.13 1020 10 16 0.00 0.00
8:53 pm 20:53 Cloudy 57 13.9 42 5.6 58 58 SE 10 17 30.12 1020 10 16 0.00 0.00
9:53 pm 21:53 Cloudy 57 13.9 41 5 55 55 SE 9 15 30.13 1020 10 16 0.00 0.00
10:53 pm 22:53 Cloudy 55 12.8 41 5 59 59 SE 9 15 30.11 1020 10 16 0.00 0.00
11:53 pm 23:53 Cloudy 55 12.8 41 5 59 59 SSE 9 15 30.09 1019 10 16 0.00 0.00

Powered by AerisWeather